Location: El Bakhil
(32.7726°N, 5.5387°W)
Time: 05:28:34
(UTC+00:00)

Cosmos 1666 - Pass Details

Date: 03 March 2021
Orbit: 497 x 518 km, 82.5° (Epoch: 12 April)

Event Time Altitude Azimuth Distance (km) Brightness Sun altitude
Rises 19:59:44 0° 195° (SSW) 2,568 6.4 -21.5°
Reaches altitude 10° 20:01:52 10° 200° (SSW) 1,690 5.4 -22.0°
Maximum altitude 20:05:29 52° 278° (W) 622 3.4 -22.7°
Drops below altitude 10° 20:09:08 10° 356° (N) 1,704 5.4 -23.5°
Sets 20:11:18 0° 1° (N) 2,593 6.3 -23.9°
